Regional Weather Roundup
Issued by NWS

Home | Current Version | Previous Version | Text Only | Print | Product List | Glossary On
Versions: 1 2 3 4 5 6 7 8 9 10 11 12 13 14 15 16 17 18 19 20 21 22 23 24 25 26 27 28 29 30 31 32 33 34 35 36 37 38 39 40 41 42 43 44 45 46 47 48 49 50
000
ASUS42 KFFC 262010
RWRGA
WEATHER ROUNDUP FOR GEORGIA
NATIONAL WEATHER SERVICE PEACHTREE CITY GA
400 PM EDT SUN MAR 26 2017

NOTE: "FAIR" INDICATES FEW OR NO CLOUDS BELOW 12,000 FEET WITH NO
SIGNIFICANT WEATHER AND/OR OBSTRUCTIONS TO VISIBILITY.

* = USE WITH CAUTION. THE STATIONS MARKED WITH AN ASTERISK MAY NOT
REPORT WEATHER SUCH AS PRECIPITATION, FOG, OR THUNDER AND ARE NOT
QUALITY CONTROLLED BY NWS.

THE REMARK "TC" DENOTES TEMPERATURE READING IN DEGREES CELSIUS.

GAZ001>058-262100-
NORTH GEORGIA

CITY           SKY/WX    TMP DP  RH WIND       PRES   REMARKS
ATLANTA        PTSUNNY   77  54  44 SW15      30.06F
ATHENS         PTSUNNY   79  56  45 SW8       30.07F
CHAMBLEE       PTSUNNY   75  54  47 SW12      30.06F
PEACHTREE CITY MOSUNNY   78  55  44 S10G17    30.07F
ROME           LGT RAIN  76  57  51 W10G17    30.03F
WEST ATLANTA   MOSUNNY   77  52  41 SW13G20   30.05F
GAINESVILLE    MOSUNNY   75  53  46 SW9G18    30.09F
CARTERSVILLE   MOSUNNY   77  55  46 S15G25    30.05F


CITY           SKY/WX    TMP DP  RH WIND       PRES   REMARKS
DALTON*        PTSUNNY   73  57  56 SW13G20   30.03F
LAWRENCEVILLE* PTSUNNY   77  55  47 SW12G18   30.08F
MARIETTA       PTSUNNY   75  54  46 S9        30.05F
CANTON*        MOSUNNY   75  41  29 SW12G17   30.07F
$$

GAZ059>098-102>109-262100-
CENTRAL GEORGIA

CITY           SKY/WX    TMP DP  RH WIND       PRES   REMARKS
AUGUSTA-BUSH   MOSUNNY   79  56  45 S10       30.09F
AUGUSTA-DANIEL PTSUNNY   77  53  43 SE15      30.11F
COLUMBUS       PTSUNNY   81  58  45 S8        30.05F
MACON          MOSUNNY   82  55  39 SW12      30.07F
ROBINS AFB     MOSUNNY   84  56  38 S9        30.06F


CITY           SKY/WX    TMP DP  RH WIND       PRES   REMARKS
LAGRANGE*      PTSUNNY   78  62  57 SW9G17    30.07S
SYLVANIA*      MOSUNNY  N/A N/A N/A SE7       30.13F
MILLEDGEVILLE* PTSUNNY   82  61  47 CALM      30.07F
$$

GAZ099>101-110>166-262100-
SOUTH GEORGIA

CITY           SKY/WX    TMP DP  RH WIND       PRES   REMARKS
SAVANNAH       MOSUNNY   80  56  43 SE13      30.13F
VALDOSTA       CLOUDY    79  58  48 SW8       30.09F
ALMA           PTSUNNY   81  58  45 SE8       30.10F
ST SIMONS      SUNNY     73  62  68 SE13      30.14F
FT STEWART     PTSUNNY   76  59  55 SE12      30.10F
ALBANY         PTSUNNY   82  56  40 SW9       30.08F
HUNTER AFB     MOSUNNY   78  62  58 SE12G17   30.11F
MOODY AFB      PTSUNNY   79  57  47 CALM      30.07F
BRUNSWICK      SUNNY     77  63  61 SE10G17   30.14S


CITY           SKY/WX    TMP DP  RH WIND       PRES   REMARKS
BAINBRIDGE*    SUNNY     82  55  39 S9        30.06F
MOULTRIE*      MOSUNNY   82  55  39 SW3       30.08F
VIDALIA*       PTSUNNY   81  54  39 S8        30.10F
WAYCROSS*      PTSUNNY   83  58  42 SE7       30.10F
DOUGLAS*       CLOUDY    81  52  36 S7        30.10F
$$



USA.gov is the U.S. government's official web portal to all federal, state and local government web resources and services.